EZY3488 EDDM-LIRN

Flight info

Callsign EZY3488
Flight time 1h 30m
Altitude 37000
Route TURBU7S TURBU Y107 TOBSO DCT BAKOR DCT AGOMO DCT ANC DCT EKMIL DCT SUXUB DCT ERIKA
Aircraft A319/M-SDE3FGHIRWY/LB1

Departure

Time 2026-05-05 08:53
Airport Munich Airport (EDDM)

Arrival

Time 2026-05-05 10:23
Airport Naples International Airport (LIRN)
Time Latitude Longitude Altitude Speed Heading
2026-05-05 08:26 48.35133 11.78349 1477 ft 0 kts 83°
2026-05-05 08:40 48.35132 11.78345 1477 ft 3 kts 81°
2026-05-05 08:40 48.35127 11.78312 1475 ft 3 kts 88°
2026-05-05 08:41 48.35124 11.78280 1474 ft 3 kts 90°
2026-05-05 08:41 48.35116 11.78250 1473 ft 3 kts 51°
2026-05-05 08:41 48.35101 11.78241 1472 ft 0 kts
2026-05-05 08:44 48.35102 11.78241 1472 ft 1 kts
2026-05-05 08:44 48.35130 11.78236 1472 ft 7 kts 353°
2026-05-05 08:44 48.35188 11.78207 1472 ft 13 kts 316°
2026-05-05 08:45 48.35199 11.78087 1470 ft 13 kts 265°
2026-05-05 08:45 48.35190 11.77959 1470 ft 15 kts 263°
2026-05-05 08:45 48.35161 11.77840 1470 ft 14 kts 213°
2026-05-05 08:45 48.35085 11.77829 1471 ft 12 kts 175°
2026-05-05 08:46 48.35002 11.77844 1470 ft 15 kts 173°
2026-05-05 08:46 48.34908 11.77861 1470 ft 16 kts 174°
2026-05-05 08:46 48.34802 11.77880 1470 ft 18 kts 174°
2026-05-05 08:46 48.34694 11.77906 1470 ft 16 kts 156°
2026-05-05 08:47 48.34674 11.78027 1470 ft 15 kts 85°
2026-05-05 08:47 48.34685 11.78173 1470 ft 17 kts 84°
2026-05-05 08:47 48.34696 11.78333 1471 ft 18 kts 84°
2026-05-05 08:47 48.34711 11.78491 1473 ft 17 kts 85°
2026-05-05 08:48 48.34723 11.78651 1474 ft 18 kts 84°
2026-05-05 08:48 48.34734 11.78816 1475 ft 19 kts 83°
2026-05-05 08:48 48.34748 11.78998 1474 ft 21 kts 83°
2026-05-05 08:48 48.34762 11.79175 1472 ft 18 kts 83°
2026-05-05 08:49 48.34774 11.79307 1470 ft 14 kts 82°
2026-05-05 08:49 48.34784 11.79443 1469 ft 16 kts 84°
2026-05-05 08:49 48.34795 11.79598 1467 ft 18 kts 83°
2026-05-05 08:49 48.34808 11.79769 1467 ft 19 kts 83°
2026-05-05 08:50 48.34823 11.79951 1467 ft 20 kts 83°
2026-05-05 08:50 48.34828 11.80117 1467 ft 16 kts 108°
2026-05-05 08:50 48.34767 11.80227 1467 ft 14 kts 154°
2026-05-05 08:50 48.34684 11.80251 1467 ft 13 kts 174°
2026-05-05 08:51 48.34601 11.80265 1467 ft 14 kts 174°
2026-05-05 08:51 48.34517 11.80275 1467 ft 14 kts 177°
2026-05-05 08:51 48.34462 11.80219 1468 ft 9 kts 256°
2026-05-05 08:51 48.34461 11.80210 1468 ft 0 kts 261°
2026-05-05 08:52 48.34455 11.80158 1468 ft 27 kts 262°
2026-05-05 08:52 48.34416 11.79624 1471 ft 92 kts 264°
2026-05-05 08:52 48.34331 11.78541 1479 ft 147 kts 264°
2026-05-05 08:53 48.34231 11.77211 1941 ft 150 kts 265°
2026-05-05 08:53 48.34136 11.75903 2571 ft 142 kts 264°
2026-05-05 08:53 48.34027 11.74574 2979 ft 154 kts 264°
2026-05-05 08:53 48.33896 11.73133 3532 ft 160 kts 262°
2026-05-05 08:54 48.33534 11.71729 3973 ft 172 kts 230°
2026-05-05 08:54 48.32630 11.70835 4378 ft 183 kts 193°
2026-05-05 08:54 48.31470 11.70713 4819 ft 194 kts 179°
2026-05-05 08:54 48.30232 11.70740 5273 ft 207 kts 178°
2026-05-05 08:55 48.28951 11.70897 5633 ft 224 kts 165°
2026-05-05 08:55 48.27652 11.71595 6062 ft 239 kts 155°
2026-05-05 08:55 48.26313 11.72530 6534 ft 254 kts 154°
2026-05-05 08:55 48.24892 11.73540 7012 ft 269 kts 154°
2026-05-05 08:56 48.23408 11.74562 7642 ft 277 kts 155°
2026-05-05 08:56 48.21894 11.75572 8443 ft 278 kts 155°
2026-05-05 08:56 48.20368 11.76571 9261 ft 279 kts 156°
2026-05-05 08:56 48.18852 11.77549 10033 ft 281 kts 156°
2026-05-05 08:57 48.17294 11.78548 10667 ft 288 kts 156°
2026-05-05 08:57 48.15679 11.79578 11066 ft 303 kts 157°
2026-05-05 08:57 48.13963 11.80668 11558 ft 314 kts 157°
2026-05-05 08:57 48.12217 11.81773 12237 ft 317 kts 158°
2026-05-05 08:58 48.10456 11.82886 12933 ft 320 kts 158°
2026-05-05 08:58 48.08707 11.83990 13578 ft 324 kts 158°
2026-05-05 08:58 48.06908 11.85124 14227 ft 327 kts 158°
2026-05-05 08:58 48.05117 11.86249 14849 ft 330 kts 158°
2026-05-05 08:59 48.03280 11.87404 15465 ft 334 kts 158°
2026-05-05 08:59 48.01445 11.88556 16061 ft 337 kts 158°
2026-05-05 08:59 47.99574 11.89730 16642 ft 340 kts 159°
2026-05-05 08:59 47.97694 11.90909 17197 ft 344 kts 159°
2026-05-05 09:00 47.95760 11.92122 17770 ft 347 kts 159°
2026-05-05 09:00 47.93840 11.93315 18368 ft 349 kts 160°
2026-05-05 09:00 47.91836 11.94260 18900 ft 352 kts 168°
2026-05-05 09:00 47.89745 11.94786 19412 ft 354 kts 176°
2026-05-05 09:01 47.87643 11.94898 19949 ft 356 kts 181°
2026-05-05 09:01 47.85497 11.94859 20502 ft 358 kts 182°
2026-05-05 09:01 47.83304 11.94791 21035 ft 362 kts 182°
2026-05-05 09:01 47.81160 11.94725 21529 ft 365 kts 182°
2026-05-05 09:02 47.78964 11.94670 22033 ft 368 kts 182°
2026-05-05 09:02 47.76743 11.94624 22532 ft 370 kts 182°
2026-05-05 09:02 47.74505 11.94580 23026 ft 373 kts 182°
2026-05-05 09:02 47.72283 11.94538 23486 ft 376 kts 182°
2026-05-05 09:03 47.70009 11.94497 23948 ft 379 kts 182°
2026-05-05 09:03 47.67747 11.94457 24428 ft 381 kts 182°
2026-05-05 09:03 47.65453 11.94417 24905 ft 383 kts 182°
2026-05-05 09:03 47.63150 11.94377 25364 ft 385 kts 182°
2026-05-05 09:04 47.60873 11.94338 25798 ft 387 kts 182°
2026-05-05 09:04 47.58543 11.94299 26231 ft 389 kts 182°
2026-05-05 09:04 47.56164 11.94258 26667 ft 392 kts 183°
2026-05-05 09:04 47.53847 11.94218 27081 ft 394 kts 182°
2026-05-05 09:05 47.51464 11.94178 27484 ft 396 kts 183°
2026-05-05 09:05 47.49119 11.94139 27866 ft 398 kts 183°
2026-05-05 09:05 47.46693 11.94098 28269 ft 400 kts 183°
2026-05-05 09:05 47.44311 11.94012 28643 ft 401 kts 185°
2026-05-05 09:06 47.41901 11.93761 29025 ft 402 kts 187°
2026-05-05 09:06 47.39482 11.93331 29387 ft 403 kts 189°
2026-05-05 09:06 47.37085 11.92848 29723 ft 405 kts 189°
2026-05-05 09:06 47.34698 11.92368 30065 ft 407 kts 189°
2026-05-05 09:07 47.32280 11.91882 30431 ft 408 kts 190°
2026-05-05 09:07 47.29866 11.91399 30759 ft 409 kts 189°
2026-05-05 09:07 47.27410 11.90907 31066 ft 411 kts 190°
2026-05-05 09:07 47.24925 11.90410 31402 ft 412 kts 189°
2026-05-05 09:08 47.22507 11.89929 31703 ft 414 kts 189°
2026-05-05 09:08 47.20026 11.89435 31997 ft 416 kts 189°
2026-05-05 09:08 47.17580 11.88950 32280 ft 417 kts 189°
2026-05-05 09:08 47.15102 11.88457 32650 ft 416 kts 189°
2026-05-05 09:09 47.12664 11.87974 33082 ft 414 kts 189°
2026-05-05 09:09 47.10196 11.87489 33519 ft 412 kts 189°
2026-05-05 09:09 47.07776 11.87012 33896 ft 410 kts 189°
2026-05-05 09:09 47.05372 11.86536 34261 ft 409 kts 189°
2026-05-05 09:10 47.02969 11.86052 34613 ft 407 kts 190°
2026-05-05 09:10 47.00557 11.85442 34942 ft 405 kts 193°
2026-05-05 09:10 46.98212 11.84707 35219 ft 404 kts 194°
2026-05-05 09:10 46.95842 11.83949 35442 ft 404 kts 193°
2026-05-05 09:11 46.93498 11.83205 35598 ft 406 kts 194°
2026-05-05 09:11 46.91107 11.82446 35759 ft 407 kts 193°
2026-05-05 09:11 46.88688 11.81678 35923 ft 409 kts 194°
2026-05-05 09:11 46.86336 11.80934 36093 ft 409 kts 194°
2026-05-05 09:12 46.83995 11.80193 36274 ft 410 kts 194°
2026-05-05 09:12 46.81583 11.79432 36437 ft 411 kts 194°
2026-05-05 09:12 46.79204 11.78681 36581 ft 412 kts 194°
2026-05-05 09:12 46.76789 11.77919 36725 ft 413 kts 194°
2026-05-05 09:13 46.74400 11.77166 36899 ft 414 kts 194°
2026-05-05 09:13 46.71969 11.76401 37037 ft 416 kts 194°
2026-05-05 09:13 46.69558 11.75652 37035 ft 417 kts 192°
2026-05-05 09:14 46.64645 11.74908 37032 ft 419 kts 183°
2026-05-05 09:14 46.59681 11.75440 37030 ft 422 kts 173°
2026-05-05 09:15 46.54829 11.77255 37014 ft 426 kts 163°
2026-05-05 09:15 46.50177 11.80210 37017 ft 428 kts 158°
2026-05-05 09:16 46.45626 11.83400 37005 ft 429 kts 157°
2026-05-05 09:16 46.41072 11.86581 37011 ft 429 kts 157°
2026-05-05 09:17 46.36492 11.89758 37002 ft 429 kts 158°
2026-05-05 09:17 46.31887 11.92933 37008 ft 430 kts 158°
2026-05-05 09:18 46.27300 11.96089 37013 ft 430 kts 158°
2026-05-05 09:18 46.22735 11.99221 37011 ft 429 kts 158°
2026-05-05 09:19 46.18122 12.02379 37014 ft 430 kts 158°
2026-05-05 09:19 46.13539 12.05511 37015 ft 431 kts 158°
2026-05-05 09:20 46.08934 12.08651 37014 ft 431 kts 158°
2026-05-05 09:20 46.04310 12.11801 37016 ft 431 kts 158°
2026-05-05 09:21 45.99676 12.14950 37010 ft 431 kts 158°
2026-05-05 09:21 45.95062 12.18078 37015 ft 432 kts 158°
2026-05-05 09:22 45.90489 12.21173 37014 ft 432 kts 158°
2026-05-05 09:22 45.85863 12.24296 37026 ft 433 kts 157°
2026-05-05 09:23 45.81294 12.27377 37007 ft 433 kts 157°
2026-05-05 09:23 45.76661 12.30495 37018 ft 434 kts 157°
2026-05-05 09:24 45.72034 12.33605 37016 ft 434 kts 157°
2026-05-05 09:24 45.67338 12.36753 37016 ft 434 kts 157°
2026-05-05 09:25 45.62620 12.39913 37012 ft 435 kts 157°
2026-05-05 09:25 45.57890 12.43074 37018 ft 435 kts 157°
2026-05-05 09:26 45.53150 12.46237 37013 ft 435 kts 157°
2026-05-05 09:26 45.48355 12.49430 37021 ft 436 kts 157°
2026-05-05 09:27 45.43596 12.52592 37017 ft 436 kts 157°
2026-05-05 09:27 45.38795 12.55778 37018 ft 436 kts 157°
2026-05-05 09:28 45.34015 12.58942 37016 ft 437 kts 157°
2026-05-05 09:28 45.29266 12.62082 37020 ft 436 kts 157°
2026-05-05 09:29 45.24546 12.65193 37018 ft 437 kts 158°
2026-05-05 09:29 45.19812 12.68309 37014 ft 437 kts 158°
2026-05-05 09:30 45.15091 12.71415 37011 ft 437 kts 158°
2026-05-05 09:30 45.10371 12.74513 37015 ft 438 kts 158°
2026-05-05 09:31 45.05601 12.77638 37017 ft 438 kts 158°
2026-05-05 09:31 45.00834 12.80561 37017 ft 437 kts 162°
2026-05-05 09:32 44.95913 12.82973 37014 ft 436 kts 164°
2026-05-05 09:32 44.91019 12.85304 37023 ft 436 kts 164°
2026-05-05 09:33 44.86161 12.87622 37013 ft 436 kts 164°
2026-05-05 09:33 44.81287 12.89943 37025 ft 436 kts 164°
2026-05-05 09:34 44.76391 12.92273 37014 ft 437 kts 164°
2026-05-05 09:34 44.71472 12.94611 37023 ft 437 kts 164°
2026-05-05 09:35 44.66529 12.96954 37021 ft 437 kts 165°
2026-05-05 09:35 44.59044 13.00497 37018 ft 437 kts 165°
2026-05-05 09:36 44.54012 13.02874 37023 ft 437 kts 165°
2026-05-05 09:36 44.49058 13.05209 37020 ft 437 kts 165°
2026-05-05 09:37 44.44029 13.07574 37018 ft 438 kts 165°
2026-05-05 09:37 44.39032 13.09920 37024 ft 438 kts 165°
2026-05-05 09:38 44.34011 13.12273 37025 ft 438 kts 165°
2026-05-05 09:38 44.29002 13.14619 37022 ft 439 kts 165°
2026-05-05 09:39 44.24012 13.16949 37025 ft 439 kts 165°
2026-05-05 09:39 44.19078 13.19249 37025 ft 439 kts 165°
2026-05-05 09:40 44.14095 13.21569 37020 ft 440 kts 165°
2026-05-05 09:40 44.09188 13.23850 37029 ft 440 kts 165°
2026-05-05 09:41 44.04228 13.26151 37026 ft 440 kts 165°
2026-05-05 09:41 43.99280 13.28440 37022 ft 440 kts 165°
2026-05-05 09:42 43.94260 13.30762 37023 ft 441 kts 166°
2026-05-05 09:42 43.89303 13.33049 37026 ft 441 kts 166°
2026-05-05 09:43 43.84281 13.35362 37026 ft 441 kts 166°
2026-05-05 09:43 43.79261 13.37672 37029 ft 441 kts 166°
2026-05-05 09:44 43.74282 13.39959 37029 ft 441 kts 166°
2026-05-05 09:44 43.69273 13.42257 37040 ft 442 kts 166°
2026-05-05 09:45 43.64286 13.44538 37039 ft 442 kts 166°
2026-05-05 09:45 43.59276 13.46826 37043 ft 442 kts 166°
2026-05-05 09:46 43.54293 13.49160 37039 ft 443 kts 165°
2026-05-05 09:46 43.49347 13.51529 37035 ft 443 kts 165°
2026-05-05 09:47 43.44366 13.53911 37037 ft 444 kts 165°
2026-05-05 09:47 43.39423 13.56264 37034 ft 444 kts 165°
2026-05-05 09:48 43.34440 13.58634 37036 ft 444 kts 165°
2026-05-05 09:48 43.29457 13.60997 37035 ft 444 kts 165°
2026-05-05 09:49 43.24503 13.63342 37038 ft 445 kts 166°
2026-05-05 09:49 43.19484 13.65714 37035 ft 444 kts 166°
2026-05-05 09:50 43.14507 13.68064 37039 ft 445 kts 167°
2026-05-05 09:50 43.09536 13.70404 37039 ft 445 kts 167°
2026-05-05 09:51 43.04560 13.72744 37043 ft 444 kts 167°
2026-05-05 09:51 42.99542 13.75099 37045 ft 445 kts 167°
2026-05-05 09:52 42.94546 13.77438 37046 ft 446 kts 167°
2026-05-05 09:52 42.89568 13.79765 37053 ft 446 kts 167°
2026-05-05 09:53 42.84526 13.82120 37050 ft 446 kts 167°
2026-05-05 09:53 42.79487 13.84469 37055 ft 445 kts 167°
2026-05-05 09:54 42.74397 13.86837 37048 ft 445 kts 167°
2026-05-05 09:54 42.69384 13.89165 37058 ft 447 kts 167°
2026-05-05 09:55 42.64320 13.91513 37062 ft 446 kts 167°
2026-05-05 09:55 42.59256 13.93858 37065 ft 447 kts 167°
2026-05-05 09:56 42.54230 13.96182 37069 ft 446 kts 167°
2026-05-05 09:56 42.49210 13.98498 37019 ft 443 kts 167°
2026-05-05 09:57 42.46734 13.99644 36684 ft 440 kts 167°
2026-05-05 09:57 42.44236 14.00796 36166 ft 440 kts 167°
2026-05-05 09:57 42.41768 14.01931 35735 ft 438 kts 167°
2026-05-05 09:57 42.39317 14.03060 35360 ft 436 kts 167°
2026-05-05 09:58 42.36939 14.04152 34959 ft 434 kts 167°
2026-05-05 09:58 42.34499 14.05273 34505 ft 434 kts 168°
2026-05-05 09:58 42.32095 14.06376 33926 ft 434 kts 168°
2026-05-05 09:58 42.29656 14.07494 33264 ft 435 kts 168°
2026-05-05 09:59 42.27242 14.08598 32607 ft 437 kts 168°
2026-05-05 09:59 42.24785 14.09719 31906 ft 438 kts 168°
2026-05-05 09:59 42.22346 14.10835 31259 ft 439 kts 168°
2026-05-05 09:59 42.19899 14.11839 30814 ft 429 kts 173°
2026-05-05 10:00 42.17459 14.12470 30395 ft 418 kts 180°
2026-05-05 10:00 42.15048 14.12728 29901 ft 410 kts 186°
2026-05-05 10:00 42.12686 14.12633 29395 ft 402 kts 192°
2026-05-05 10:00 42.10373 14.12257 28930 ft 396 kts 195°
2026-05-05 10:01 42.08052 14.11803 28425 ft 393 kts 195°
2026-05-05 10:01 42.05770 14.11345 27937 ft 391 kts 194°
2026-05-05 10:01 42.03448 14.10887 27431 ft 388 kts 194°
2026-05-05 10:01 42.01194 14.10449 26963 ft 385 kts 194°
2026-05-05 10:02 41.98944 14.10019 26481 ft 383 kts 193°
2026-05-05 10:02 41.96679 14.09589 25940 ft 382 kts 193°
2026-05-05 10:02 41.94454 14.09169 25440 ft 380 kts 193°
2026-05-05 10:02 41.92220 14.08752 24983 ft 377 kts 193°
2026-05-05 10:03 41.89997 14.08336 24507 ft 374 kts 193°
2026-05-05 10:03 41.87767 14.07917 24027 ft 372 kts 192°
2026-05-05 10:03 41.85559 14.07502 23567 ft 370 kts 192°
2026-05-05 10:03 41.83383 14.07091 23104 ft 368 kts 192°
2026-05-05 10:04 41.81205 14.06680 22659 ft 366 kts 192°
2026-05-05 10:04 41.79055 14.06278 22234 ft 364 kts 192°
2026-05-05 10:04 41.76904 14.05874 21824 ft 361 kts 192°
2026-05-05 10:04 41.74770 14.05475 21403 ft 359 kts 192°
2026-05-05 10:05 41.72631 14.05075 20971 ft 357 kts 192°
2026-05-05 10:05 41.70530 14.04681 20566 ft 355 kts 192°
2026-05-05 10:05 41.68393 14.04279 20154 ft 353 kts 192°
2026-05-05 10:05 41.66317 14.03890 19758 ft 350 kts 191°
2026-05-05 10:06 41.64214 14.03703 19321 ft 354 kts 179°
2026-05-05 10:06 41.62133 14.04361 18880 ft 361 kts 161°
2026-05-05 10:06 41.60257 14.05871 18491 ft 364 kts 146°
2026-05-05 10:06 41.58567 14.07713 18069 ft 359 kts 144°
2026-05-05 10:07 41.56931 14.09557 17462 ft 359 kts 143°
2026-05-05 10:07 41.55266 14.11445 16852 ft 357 kts 143°
2026-05-05 10:07 41.53656 14.13270 16280 ft 355 kts 143°
2026-05-05 10:07 41.52037 14.15101 15698 ft 353 kts 143°
2026-05-05 10:08 41.50422 14.16924 15125 ft 353 kts 143°
2026-05-05 10:08 41.48801 14.18748 14649 ft 354 kts 143°
2026-05-05 10:08 41.47191 14.20558 14226 ft 353 kts 142°
2026-05-05 10:08 41.45569 14.22379 13823 ft 352 kts 142°
2026-05-05 10:09 41.43961 14.24185 13442 ft 351 kts 142°
2026-05-05 10:09 41.42347 14.25991 13074 ft 349 kts 142°
2026-05-05 10:09 41.40759 14.27771 12717 ft 346 kts 142°
2026-05-05 10:09 41.39172 14.29548 12358 ft 344 kts 142°
2026-05-05 10:10 41.37600 14.31309 11984 ft 342 kts 142°
2026-05-05 10:10 41.36050 14.33039 11630 ft 340 kts 142°
2026-05-05 10:10 41.34485 14.34787 11268 ft 338 kts 142°
2026-05-05 10:10 41.32930 14.36523 10901 ft 335 kts 142°
2026-05-05 10:11 41.31397 14.38233 10558 ft 333 kts 142°
2026-05-05 10:11 41.29865 14.39940 10213 ft 329 kts 142°
2026-05-05 10:11 41.28380 14.41595 10083 ft 319 kts 142°
2026-05-05 10:11 41.26935 14.43210 10040 ft 305 kts 142°
2026-05-05 10:12 41.25539 14.44765 9888 ft 298 kts 142°
2026-05-05 10:12 41.24180 14.46274 9560 ft 297 kts 142°
2026-05-05 10:12 41.22802 14.47804 9241 ft 296 kts 143°
2026-05-05 10:12 41.21424 14.49334 8952 ft 294 kts 142°
2026-05-05 10:13 41.20049 14.50859 8651 ft 293 kts 142°
2026-05-05 10:13 41.18698 14.52357 8366 ft 290 kts 143°
2026-05-05 10:13 41.17350 14.53852 8085 ft 289 kts 143°
2026-05-05 10:13 41.15994 14.55354 7799 ft 286 kts 143°
2026-05-05 10:14 41.14665 14.56827 7526 ft 285 kts 142°
2026-05-05 10:14 41.13349 14.58284 7248 ft 283 kts 143°
2026-05-05 10:14 41.12016 14.59761 7005 ft 279 kts 143°
2026-05-05 10:14 41.10747 14.61167 6952 ft 268 kts 143°
2026-05-05 10:15 41.09531 14.62514 6952 ft 255 kts 143°
2026-05-05 10:15 41.08335 14.63772 6944 ft 241 kts 154°
2026-05-05 10:15 41.07016 14.64338 6892 ft 221 kts 183°
2026-05-05 10:15 41.05752 14.64018 6711 ft 207 kts 212°
2026-05-05 10:16 41.04760 14.63073 6470 ft 202 kts 229°
2026-05-05 10:16 41.03978 14.61836 6215 ft 201 kts 238°
2026-05-05 10:16 41.03344 14.60498 5967 ft 201 kts 242°
2026-05-05 10:16 41.02740 14.59114 5713 ft 201 kts 242°
2026-05-05 10:17 41.02126 14.57718 5454 ft 202 kts 241°
2026-05-05 10:17 41.01501 14.56335 5196 ft 203 kts 240°
2026-05-05 10:17 41.00865 14.54960 4938 ft 204 kts 239°
2026-05-05 10:17 41.00219 14.53588 4681 ft 205 kts 239°
2026-05-05 10:18 40.99565 14.52209 4417 ft 205 kts 238°
2026-05-05 10:18 40.98897 14.50809 4151 ft 206 kts 238°
2026-05-05 10:18 40.98223 14.49396 3882 ft 208 kts 238°
2026-05-05 10:18 40.97543 14.47970 3614 ft 208 kts 238°
2026-05-05 10:19 40.96818 14.46448 3325 ft 209 kts 237°
2026-05-05 10:19 40.96082 14.44899 3033 ft 210 kts 237°
2026-05-05 10:19 40.95388 14.43436 2751 ft 206 kts 237°
2026-05-05 10:19 40.94702 14.41987 2470 ft 196 kts 237°
2026-05-05 10:20 40.94061 14.40632 2213 ft 189 kts 237°
2026-05-05 10:20 40.93445 14.39330 1975 ft 183 kts 237°
2026-05-05 10:20 40.92856 14.38084 1796 ft 173 kts 238°
2026-05-05 10:20 40.92301 14.36910 1562 ft 166 kts 237°
2026-05-05 10:21 40.91782 14.35812 1329 ft 160 kts 238°
2026-05-05 10:21 40.91293 14.34776 1123 ft 150 kts 238°
2026-05-05 10:21 40.90831 14.33801 924 ft 141 kts 238°
2026-05-05 10:21 40.90396 14.32879 746 ft 132 kts 238°
2026-05-05 10:22 40.89990 14.31998 614 ft 133 kts 238°
2026-05-05 10:22 40.89566 14.31109 402 ft 131 kts 238°
2026-05-05 10:22 40.89148 14.30233 262 ft 131 kts 239°
2026-05-05 10:22 40.88753 14.29409 255 ft 105 kts 239°
2026-05-05 10:23 40.88495 14.28847 267 ft 63 kts 238°
2026-05-05 10:23 40.88345 14.28546 277 ft 35 kts 233°
2026-05-05 10:23 40.88241 14.28430 284 ft 18 kts 217°
2026-05-05 10:23 40.88161 14.28369 287 ft 14 kts 203°
2026-05-05 10:24 40.88085 14.28332 290 ft 11 kts 165°
2026-05-05 10:24 40.88057 14.28406 291 ft 10 kts 99°
2026-05-05 10:24 40.88065 14.28485 291 ft 9 kts 33°
2026-05-05 10:24 40.88102 14.28498 289 ft 0 kts
2026-05-05 10:25 40.88103 14.28498 289 ft 0 kts